Location: Lakeshore
(37.2530°N, 119.1748°W)
Time: 18:14:32
(UTC+00:00)

Daily predictions for brighter satellites

Satellite Brightness Start Highest point End
(mag) Time Altitude Azimuth Time Altitude Azimuth Time Altitude Azimuth
Cosmos 2237 Rocket 4.0 12:12:27 23° NNE 12:12:27 23° NNE 12:14:31 10° NNE
NOSS 3-2 (A) 4.2 12:10:18 44° ESE 12:10:18 44° ESE 12:15:50 10° NE
USA 267 3.1 12:19:28 10° SE 12:25:54 85° S 12:25:54 85° S
CENTAUR R/B 3.5 12:26:24 18° S 12:30:09 39° ESE 12:36:05 10° NE
Cosmos 1241 Rocket 4.5 12:33:44 75° NNW 12:34:21 86° ENE 12:40:51 10° SSE
Lacrosse 5 rocket 3.4 12:38:32 21° SE 12:38:32 21° SE 12:39:53 10° SE
CZ-4B R/B 3.6 12:41:06 10° SE 12:43:00 25° ESE 12:43:00 25° ESE
SL-4 R/B 4.3 12:53:25 15° NNE 12:53:25 15° NNE 12:54:21 10° NNE
Meteor 1-21 Rocket 4.2 12:50:39 18° N 12:55:08 88° E 13:01:01 10° S
Cosmos 1464 Rocket 4.4 12:57:48 41° NNW 12:57:48 41° NNW 13:02:05 10° N
Atlas Centaur 2 3.3 12:59:48 37° SW 13:02:01 47° S 13:09:46 10° ESE
Cosmos 372 Rocket 3.9 13:00:40 44° NNW 13:02:24 89° WSW 13:07:37 10° SSE
ERBS 3.6 13:02:48 37° ESE 13:02:48 37° ESE 13:05:39 10° ENE
Meteor 2-13 Rocket 4.3 12:58:04 10° N 13:04:14 82° W 13:10:21 10° S
USA 238 DEB 3.5 13:01:41 25° SW 13:05:42 84° WNW 13:12:32 10° NNE
USA 238 3.5 13:01:42 25° SW 13:05:48 85° WNW 13:12:38 10° NNE
BREEZE-M DEB (TANK) 2.8 13:06:28 50° NNE 13:06:28 50° NNE 13:11:32 10° NE
SJ-12 4.0 13:02:01 10° N 13:11:30 - SSW 13:05:36 66° N
ADEOS 3.5 13:05:15 10° N 13:10:21 57° WNW 13:11:46 42° WSW
CZ-2C R/B 1.5 13:10:49 57° SSW 13:11:00 57° S 13:15:06 10° ESE
CZ-4B R/B 2.8 13:10:43 10° NNE 13:14:25 73° ESE 13:18:15 10° S
ERS-2 3.1 13:11:32 10° SSE 13:15:01 47° ENE 13:18:05 13° N
COSMO-SKYMED 1 2.5 13:10:57 10° SSE 13:15:17 83° ENE 13:18:42 16° N
Cosmos 2228 4.2 13:14:48 10° SSE 13:18:48 42° E 13:22:48 10° NNE
Cosmos 1092 Rocket 4.0 13:18:10 10° N 13:24:21 83° E 13:30:33 10° S
Meteor 1-16 Rocket 4.5 13:19:18 10° SSW 13:24:59 49° WNW 13:30:44 10° N
Cosmos 1943 Rocket 3.4 13:20:47 10° N 13:26:06 40° ENE 13:31:24 10° SE
H-2A R/B 2.8 13:22:38 10° NNE 13:26:22 77° E 13:30:08 10° S
Cosmos 2298 Rocket 4.0 13:23:22 10° NNW 13:28:44 85° ENE 13:34:03 10° SSE
Meteor PRIRODA 3.4 13:25:22 10° N 13:28:59 77° WNW 13:32:36 10° SSW
Envisat 3.6 13:24:56 10° NNE 13:29:57 58° E 13:34:56 10° S
Cosmos 1125 Rocket 4.1 13:25:03 10° N 13:30:18 58° ENE 13:35:31 10° SSE
Nadezhda 4 Rocket 4.1 13:28:30 10° NNW 13:34:19 47° W 13:40:07 10° SSW
Cosmos 1606 Rocket 4.0 13:32:25 10° S 13:36:39 63° E 13:40:57 10° NNE
Cosmos 1703 3.5 13:36:07 38° WNW 13:36:48 42° W 13:40:30 10° SSW
SAR-Lupe-4 3.8 13:33:49 10° SSE 13:37:22 70° ENE 13:40:57 10° N
Cosmos 1300 2.6 13:33:50 10° S 13:37:37 89° E 13:41:27 10° N
Cosmos 2369 Rocket 4.0 13:32:56 10° N 13:37:46 29° ENE 13:42:34 10° ESE
Cosmos 2034 Rocket 4.5 13:32:13 10° SW 13:38:00 36° WNW 13:43:47 10° N
Lacrosse 4 Rocket 3.2 13:42:33 17° NNW 13:42:33 17° NNW 13:44:19 10° N
OAO 3 Copernicus 4.5 13:40:49 27° W 13:43:32 66° S 13:48:31 10° ESE
Cosmos 1689 Rocket 2.1 13:40:59 10° SSE 13:43:52 73° ENE 13:46:42 10° N
SL-16 R/B 2.5 13:39:48 10° SW 13:45:08 42° WNW 13:50:31 10° N
Cosmos 1626 Rocket 4.2 13:43:42 25° NW 13:45:19 32° W 13:49:16 10° SSW
Cosmos 1315 Rocket 2.6 13:42:04 10° S 13:45:57 81° W 13:49:53 10° N
Cosmos 1634 Rocket 3.9 13:41:42 10° SSW 13:47:49 68° W 13:53:59 10° N
Cosmos 2278 Rocket 3.5 13:48:15 19° WSW 13:48:15 19° WSW 13:51:39 10° SW
Cosmos 1943 4.4 13:44:02 10° S 13:49:25 45° ESE 13:54:49 10° NE
BREEZE-M DEB (TANK) 2.7 13:45:54 17° NW 13:51:35 86° SW 13:54:27 10° SE
Cosmos 2237 Rocket 3.9 13:54:20 13° NW 13:54:20 13° NW 13:56:25 10° NNW
SAR-Lupe-1 3.9 13:50:12 10° S 13:53:44 70° WSW 13:57:19 10° NNW
Chandra Rocket (1) 3.6 13:54:05 12° WSW 13:56:43 19° SSW 13:58:54 10° SSE
Cosmos 1346 Rocket 2.7 13:54:11 10° NNW 13:58:08 65° W 14:02:04 10° S
deb Chang Zheng 4 4.3 13:54:31 10° N 13:58:11 29° WNW 14:01:48 10° SW
FALCON 9 DEB 4.5 14:00:17 18° NW 14:00:34 19° NNW 14:02:52 10° NNE
NOSS 3-2 (A) 4.2 13:57:46 17° W 14:01:07 29° NW 14:06:34 10° NNE
NOAA 6 4.1 13:57:14 10° NNE 14:02:27 85° ESE 14:07:38 10° SSW
Cosmos 2026 Rocket 4.1 14:03:52 10° NNW 14:10:03 55° W 14:16:14 10° SSW
Cosmos 1340 4.3 14:10:52 15° W 14:10:57 15° W 14:13:07 10° SW
MOS 1 Rocket 4.0 14:06:47 10° SSW 14:11:12 33° W 14:15:25 10° NNW
Cosmos 1758 Rocket 3.9 14:07:09 10° NNW 14:11:24 43° W 14:15:35 10° SSW
TIMED 4.4 14:08:35 10° SSW 14:12:56 76° WNW 14:17:19 10° NNE
YAOGAN 6 3.1 14:09:30 10° N 14:12:57 38° WNW 14:16:23 10° SW
NOSS 3-2 (C) 3.9 14:09:37 10° WSW 14:14:47 37° NW 14:20:36 10° NNE
ATLAS 5 CENTAUR R/B 3.4 14:13:23 14° W 14:15:41 26° SW 14:22:13 10° S
Cosmos 1892 3.6 14:12:09 10° N 14:15:57 53° E 14:19:43 10° SSE
CZ-4B R/B 3.5 14:15:19 10° WSW 14:16:06 11° W 14:16:06 11° W
SL-19 R/B 3.7 14:15:33 10° NNE 14:19:03 78° WNW 14:22:06 10° SSW
Cosmos 2084 Rocket 4.3 14:16:39 11° NW 14:20:31 34° WSW 14:24:38 10° S
Cosmos 1726 Rocket 3.7 14:16:37 10° SSW 14:20:47 49° W 14:24:59 10° N
CENTAUR R/B 3.1 14:15:29 10° WSW 14:20:48 34° NW 14:26:58 10° NNE
Cosmos 783 Rocket 4.4 14:16:52 10° SSW 14:22:02 74° WNW 14:27:15 10° NNE
Cosmos 2058 Rocket 3.0 14:19:18 10° S 14:23:40 80° W 14:28:08 10° N
Cosmos 1408 3.7 14:22:44 10° N 14:26:15 48° E 14:29:46 10° SSE
Cosmos 2297 4.3 14:22:05 10° NW 14:27:20 37° WSW 14:32:33 10° S
NOAA 11 4.4 14:22:16 10° NNE 14:27:44 78° ESE 14:33:09 10° S
PAYLOAD B 4.2 14:23:48 10° N 14:29:22 71° WNW 14:34:56 10° SSW
Radarsat Rocket 4.4 14:23:40 10° NNE 14:31:04 88° WNW 14:37:31 10° SSW
SL-4 R/B 4.2 14:30:30 10° NNW 14:31:46 11° N 14:33:03 10° NNE
NOAA 12 4.1 14:26:52 10° N 14:32:09 73° WNW 14:37:26 10° SSW
Spot 2 4.2 14:29:05 10° N 14:32:59 47° WNW 14:37:00 10° SSW
ERBS 3.9 14:36:38 10° W 14:38:52 17° NW 14:41:06 10° N
Cosmos 1655 Rocket 4.1 14:34:34 10° N 14:40:52 84° W 14:47:11 10° S
